KF5KUW Weather Reports


Display with metric or nautical units.
time (UTC)temp
F
wind
direction
speed
MPH
gust
MPH
rain 1hr
in
rain 24hr
in
rain mn
in
humidity
%
barometer
mb
20260505054836 71 154 0.0 1.0 0.00 0.00 0.00 84 1006.3
20260505053325 71 159 0.0 1.0 0.00 0.00 0.00 83 1006.5
20260505051840 71 154 0.0 1.0 0.00 0.00 0.00 84 1006.5
20260505050353 71 130 0.0 0.0 0.00 0.00 0.00 83 1006.6
20260505040322 71 133 0.0 0.0 0.00 0.00 0.00 81 1007.1
20260505034820 71 146 0.0 0.0 0.00 0.00 0.00 81 1007.1
20260505033336 71 145 0.0 0.0 0.00 0.00 0.00 81 1007.3
20260505031829 72 150 0.0 0.0 0.00 0.00 0.00 80 1007.1
20260505030326 72 158 0.0 0.0 0.00 0.00 0.00 80 1007.2
20260505024820 72 151 0.0 0.0 0.00 0.00 0.00 79 1007.1
20260505023335 72 161 0.0 0.0 0.00 0.00 0.00 79 1007.4
20260505021850 72 163 0.0 0.0 0.00 0.00 0.00 78 1007.1
20260505020328 73 142 0.0 0.0 0.00 0.00 0.00 77 1007.1
20260505014821 73 144 0.0 0.0 0.00 0.00 0.00 76 1006.9
20260505013327 74 139 0.0 0.0 0.00 0.00 0.00 75 1006.7
20260505011833 74 153 0.0 1.0 0.00 0.00 0.00 74 1006.7
20260505010323 74 138 0.0 0.0 0.00 0.00 0.00 74 1006.9
20260505004835 75 145 0.0 0.0 0.00 0.00 0.00 74 1006.7
20260505003341 75 171 0.0 0.0 0.00 0.00 0.00 73 1007.0
20260505001826 76 139 0.0 1.0 0.00 0.00 0.00 71 1006.8
20260505000339 76 146 0.0 1.0 0.00 0.00 0.00 71 1006.9
20260504234832 77 142 0.0 0.0 0.00 0.00 0.00 69 1007.1
20260504233327 77 139 0.0 1.0 0.00 0.00 0.00 68 1007.1
20260504231819 78 150 0.0 1.0 0.00 0.00 0.00 66 1007.4
20260504230330 78 147 0.0 1.0 0.00 0.00 0.00 65 1007.5
20260504224839 78 163 1.0 11.0 0.00 0.00 0.00 66 1007.6
20260504223346 78 178 0.0 0.0 0.00 0.00 0.00 65 1007.5
20260504221837 78 147 0.0 0.0 0.00 0.00 0.00 64 1007.7
20260504220327 78 122 0.0 0.0 0.00 0.00 0.00 62 1008.1
20260504214840 79 154 2.0 23.0 0.00 0.00 0.00 61 1008.2
20260504213352 79 150 2.0 16.0 0.00 0.00 0.00 62 1008.5
20260504211825 80 157 0.0 1.0 0.00 0.00 0.00 61 1008.8
20260504193347 78 150 0.0 1.0 0.00 0.00 0.00 60 1010.6
20260504191853 78 143 1.0 12.0 0.00 0.00 0.00 59 1011.0
20260504190320 77 136 0.0 1.0 0.00 0.00 0.00 60 1011.0
20260504184829 77 148 1.0 14.0 0.00 0.00 0.00 60 1011.3
20260504183338 76 159 1.0 17.0 0.00 0.00 0.00 62 1011.5
20260504181844 77 148 2.0 11.0 0.00 0.00 0.00 60 1011.8
20260504180331 76 143 3.0 12.0 0.00 0.00 0.00 61 1011.9
20260504174837 76 141 1.0 6.0 0.00 0.00 0.00 59 1012.3
20260504173326 75 165 0.0 0.0 0.00 0.00 0.00 63 1012.6
20260504171836 74 144 0.0 12.0 0.00 0.00 0.00 60 1012.8
20260504170349 74 148 6.0 20.0 0.00 0.00 0.00 59 1013.0
20260504160329 72 162 0.0 2.0 0.00 0.00 0.00 63 1013.5
20260504150333 69 181 1.0 5.0 0.00 0.00 0.00 70 1014.0
20260504140346 65 157 0.0 0.0 0.00 0.00 0.00 80 1013.9